Location: El Álamo
(40.2307°N, 3.9945°W)
Time: 04:24:13
(UTC+00:00)

SL-16 R/B - Pass Details

Date: 19 May 2025
Orbit: 841 x 844 km, 71.0° (Epoch: 23 June)

Event Time Altitude Azimuth Distance (km) Brightness Sun altitude
Rises 22:42:31 0° 345° (NNW) 3,410 6.6 -26.2°
Reaches altitude 10° 22:45:20 10° 358° (N) 2,472 5.5 -26.5°
Maximum altitude 22:50:09 28° 56° (NE) 1,539 3.6 -26.8°
Enters shadow 22:51:17 26° 76° (ENE) 1,603 3.5 -26.9°
